Ames, IA

3:03 AM CDT on October 17, 2017 (GMT -0500)
Ames Municipal

Weather History for KAMW - March, 2014

Change the Weather History Date:

Sunday, March 23, 2014

  Actual Average Record
Temperature  
Mean Temperature 24 °F 40 °F  
Max Temperature 32 °F 51 °F 73 °F (2003)
Min Temperature 15 °F 29 °F 15 °F (2014)
Degree Days  
Heating Degree Days 41 25  
Month to date heating degree days 841 689  
Since 1 July heating degree days 6707 5974  
Cooling Degree Days 0 0  
Month to date cooling degree days 0 0  
Year to date cooling degree days 0 0  
Moisture  
Dew Point 9 °F    
Average Humidity 55    
Maximum Humidity 73    
Minimum Humidity 36    
Precipitation  
Precipitation 0.00 in 0.06 in 1.27 in (2009)
Month to date precipitation 0.08 1.46  
Sea Level Pressure  
Sea Level Pressure 30.49 in    
Wind  
Wind Speed 8 mph (North)    
Max Wind Speed 17 mph    
Max Gust Speed 22 mph    
Visibility 10 miles    
Events      
T = Trace of Precipitation, MM = Missing Value Source: NWS Daily Summary

Daily Weather History Graph

Daily Weather History Graph

Search for Another Location

Airport or City:

Trip Planner

Search our weather history database for the weather conditions in past years. The results will help you decide how hot, cold, wet, or windy it might be!

Date:

Astronomy

Mar. 23, 2014 Rise Set
Actual Time 7:12 AM CDT 7:30 PM CDT
Civil Twilight 6:44 AM CDT 7:58 PM CDT
Nautical Twilight 6:11 AM CDT 8:30 PM CDT
Astronomical Twilight 5:38 AM CDT 9:04 PM CDT
Moon 1:52 AM CDT (3/23) 11:49 AM CDT (3/23)
Length of Visible Light 13h 13m
Length of Day
12h 17m
Waning Gibbous, 54% of the Moon is Illuminated
Mar 23
Waning Gibbous
Mar 23
Last Quarter
Mar 30
New
Apr 7
First Quarter
Apr 15
Full

Hourly Weather History & Observations

Time (CDT) Temp. Windchill Dew Point Humidity Pressure Visibility Wind Dir Wind Speed Gust Speed Precip Events Conditions
12:32 AM 21.0 °F 7.1 °F 10.0 °F 63% 30.49 in 10.0 mi North 16.1 mph 25.3 mph N/A   Partly Cloudy
12:53 AM 21.0 °F 6.6 °F 10.0 °F 63% 30.53 in 10.0 mi North 17.3 mph - N/A   Partly Cloudy
1:53 AM 19.9 °F 7.3 °F 10.0 °F 65% 30.54 in 10.0 mi North 12.7 mph - N/A   Clear
2:53 AM 19.0 °F 6.8 °F 9.0 °F 65% 30.55 in 10.0 mi North 11.5 mph - N/A   Clear
3:53 AM 18.0 °F 5.4 °F 8.1 °F 65% 30.54 in 10.0 mi North 11.5 mph - N/A   Clear
4:53 AM 17.1 °F 6.6 °F 8.1 °F 68% 30.54 in 10.0 mi North 8.1 mph - N/A   Clear
5:53 AM 16.0 °F 2.9 °F 7.0 °F 68% 30.55 in 10.0 mi North 11.5 mph - N/A   Clear
6:53 AM 15.1 °F 3.3 °F 7.0 °F 70% 30.56 in 10.0 mi NNW 9.2 mph - N/A   Clear
7:53 AM 16.0 °F 5.3 °F 8.1 °F 71% 30.56 in 10.0 mi NNW 8.1 mph - N/A   Clear
8:53 AM 18.0 °F 6.9 °F 8.1 °F 65% 30.57 in 10.0 mi NNW 9.2 mph - N/A   Clear
9:53 AM 21.0 °F 10.6 °F 7.0 °F 55% 30.57 in 10.0 mi North 9.2 mph - N/A   Clear
10:53 AM 21.9 °F 11.7 °F 6.1 °F 51% 30.56 in 10.0 mi NNW 9.2 mph - N/A   Clear
11:53 AM 24.1 °F 13.7 °F 6.1 °F 46% 30.55 in 10.0 mi NNW 10.4 mph - N/A   Clear
12:53 PM 26.1 °F 17.6 °F 7.0 °F 44% 30.53 in 10.0 mi NNW 8.1 mph - N/A   Clear
1:53 PM 28.9 °F 22.8 °F 7.0 °F 40% 30.51 in 10.0 mi Variable 5.8 mph - N/A   Scattered Clouds
2:53 PM 30.0 °F 23.2 °F 7.0 °F 38% 30.48 in 10.0 mi Variable 6.9 mph - N/A   Partly Cloudy
3:53 PM 28.9 °F - 7.0 °F 40% 30.45 in 10.0 mi Calm Calm - N/A   Partly Cloudy
4:53 PM 32.0 °F 24.8 °F 8.1 °F 37% 30.42 in 10.0 mi North 8.1 mph - N/A   Clear
5:53 PM 30.9 °F 27.5 °F 9.0 °F 40% 30.41 in 10.0 mi NW 3.5 mph - N/A   Clear
6:53 PM 28.9 °F 22.8 °F 10.0 °F 45% 30.40 in 10.0 mi NE 5.8 mph - N/A   Clear
7:53 PM 27.0 °F 20.5 °F 12.0 °F 53% 30.39 in 10.0 mi ENE 5.8 mph - N/A   Clear
8:53 PM 26.1 °F 20.5 °F 14.0 °F 60% 30.40 in 10.0 mi ESE 4.6 mph - N/A   Clear
9:53 PM 26.1 °F 19.4 °F 14.0 °F 60% 30.40 in 10.0 mi East 5.8 mph - N/A   Overcast
10:53 PM 26.1 °F 18.4 °F 12.9 °F 58% 30.41 in 10.0 mi ESE 6.9 mph - N/A   Overcast
11:53 PM 26.1 °F 20.5 °F 12.9 °F 58% 30.41 in 10.0 mi SE 4.6 mph - N/A   Overcast